Regional Weather Roundup
Issued by NWS

Home | Current Version | Previous Version | Graphics & Text | Print | Product List | Glossary On
Versions: 1 2 3 4 5 6 7 8 9 10 11 12 13 14 15 16 17 18 19 20 21 22 23 24 25 26 27 28 29 30 31 32 33 34 35 36 37 38 39 40 41 42 43 44 45 46 47 48 49 50
000
ASUS43 KLMK 061202
RWRKY
KENTUCKY REGIONAL WEATHER ROUNDUP
NATIONAL WEATHER SERVICE LOUISVILLE KY
800 AM EDT WED MAY 06 2015

NOTE "FAIR" INDICATES FEW OR NO CLOUDS BELOW 12,000 FEET
WITH NO SIGNIFICANT WEATHER AND/OR OBSTRUCTIONS TO VISIBILITY.

KYZ001>023-026-027-061>063-070>075-061300-
WESTERN AND SOUTH CENTRAL KENTUCKY

CITY           SKY/WX    TMP DP  RH WIND       PRES   REMARKS
PADUCAH        SUNNY     59  55  87 CALM      30.16R
HENDERSON      SUNNY     59  55  88 CALM      30.18R
OWENSBORO      SUNNY     62  56  81 CALM      30.19R
HOPKINSVILLE   NOT AVBL
BOWLING GREEN  CLOUDY    63  58  83 NW3       30.20R
GLASGOW        NOT AVBL
$$

KYZ024-025-028>034-038-045-046-053-061300-
NORTH CENTRAL KENTUCKY

CITY           SKY/WX    TMP DP  RH WIND       PRES   REMARKS
LOUISVILLE/SDF MOSUNNY   63  56  78 SE5       30.21R
LOUISVILLE/LOU SUNNY     63  56  78 CALM      30.21R
FORT KNOX      NOT AVBL
$$

KYZ035>037-039>044-047>052-055>060-089>105-061300-
NORTHEAST KENTUCKY

CITY           SKY/WX    TMP DP  RH WIND       PRES   REMARKS
LEXINGTON      SUNNY     60  56  86 SE7       30.23R
COVINGTON      MOSUNNY   59  55  87 CALM      30.22R
FRANKFORT      SUNNY     59  54  83 CALM      30.21R
$$

KYZ054-064>069-076>088-106>120-061300-
SOUTHEAST KENTUCKY

CITY           SKY/WX    TMP DP  RH WIND       PRES   REMARKS
JACKSON        CLOUDY    65  57  75 CALM      30.24R
LONDON         CLOUDY    59  53  80 CALM      30.24R
SOMERSET       NOT AVBL
MIDDLESBORO    NOT AVBL
MONTICELLO     MOSUNNY   60  58  93 CALM      30.26R
$$




USA.gov is the U.S. government's official web portal to all federal, state and local government web resources and services.